AC2JK-WX Weather Reports


Display with metric or nautical units.
time (UTC)temp
F
wind
direction
speed
MPH
gust
MPH
rain 1hr
in
rain 24hr
in
rain mn
in
humidity
%
barometer
mb
20260902101710 73 209 0.0 0.0 0.00 0.00 0.00 94 1015.0
20260902101210 73 140 0.0 0.0 0.00 0.00 0.00 95 1014.0
20260902100709 73 90 0.0 0.0 0.00 0.00 0.00 95 1014.0
20260902100209 73 23 0.0 0.0 0.00 0.00 0.00 95 1015.0
20260902095709 73 316 1.0 2.0 0.00 0.00 0.00 95 1015.0
20260902095209 73 121 0.0 0.0 0.00 0.00 0.00 95 1014.0
20260902094709 73 129 0.0 0.0 0.00 0.00 0.00 95 1015.0
20260902094209 73 107 0.0 0.0 0.00 0.00 0.00 96 1015.0
20260902093716 73 141 0.0 0.0 0.00 0.00 0.00 96 1015.0
20260902093209 73 117 0.0 0.0 0.00 0.00 0.00 96 1015.0
20260902092710 73 126 0.0 0.0 0.00 0.00 0.00 96 1015.0
20260902092210 73 84 0.0 0.0 0.00 0.00 0.00 96 1015.0
20260902091709 73 159 0.0 0.0 0.00 0.00 0.00 96 1015.0
20260902091210 73 164 0.0 1.0 0.00 0.00 0.00 96 1015.0
20260902090710 73 218 0.0 3.0 0.00 0.00 0.00 96 1015.0
20260902090209 73 181 0.0 0.0 0.00 0.00 0.00 97 1015.0
20260902085709 73 167 0.0 0.0 0.00 0.00 0.00 96 1015.0
20260902085209 73 128 0.0 0.0 0.00 0.00 0.00 97 1015.0
20260902084710 73 123 0.0 0.0 0.00 0.00 0.00 97 1015.0
20260902084209 72 125 0.0 0.0 0.00 0.00 0.00 97 1015.0
20260902083710 72 128 0.0 0.0 0.00 0.00 0.00 96 1015.0
20260902083210 72 118 0.0 0.0 0.00 0.00 0.00 97 1015.0
20260902082710 72 353 0.0 1.0 0.00 0.00 0.00 97 1015.0
20260902082209 72 220 0.0 0.0 0.00 0.00 0.00 97 1016.0
20260902081709 72 151 0.0 0.0 0.00 0.00 0.00 97 1016.0
20260902081210 72 113 0.0 0.0 0.00 0.00 0.00 96 1016.0
20260902080709 72 159 0.0 0.0 0.00 0.00 0.00 96 1016.0
20260902080211 72 107 0.0 0.0 0.00 0.00 0.00 96 1016.0
20260902075710 72 332 0.0 0.0 0.00 0.00 0.00 96 1016.0
20260902075209 72 153 0.0 0.0 0.00 0.00 0.00 96 1016.0
20260902074709 72 145 0.0 0.0 0.00 0.00 0.00 96 1016.0
20260902074210 72 128 0.0 0.0 0.00 0.00 0.00 96 1016.0
20260902073710 72 146 0.0 0.0 0.00 0.00 0.00 96 1016.0
20260902073209 72 124 0.0 0.0 0.00 0.00 0.00 96 1016.0
20260902072709 72 122 0.0 0.0 0.00 0.00 0.00 96 1016.0
20260902072211 72 121 0.0 0.0 0.00 0.00 0.00 96 1016.0
20260902071710 72 119 0.0 0.0 0.00 0.00 0.00 96 1016.0
20260902071214 72 128 0.0 0.0 0.00 0.00 0.00 96 1016.0
20260902070711 72 169 0.0 0.0 0.00 0.00 0.00 96 1016.0
20260902070210 72 147 0.0 0.0 0.00 0.00 0.00 96 1016.0
20260902065709 72 124 0.0 0.0 0.00 0.00 0.00 96 1016.0
20260902065210 72 114 0.0 0.0 0.00 0.00 0.00 96 1016.0
20260902064710 72 64 0.0 0.0 0.00 0.00 0.00 96 1016.0
20260902064210 72 170 0.0 0.0 0.00 0.00 0.00 96 1016.0
20260902063710 72 137 0.0 0.0 0.00 0.00 0.00 96 1016.0
20260902063209 72 171 0.0 0.0 0.00 0.00 0.00 96 1016.0
20260902062710 72 160 0.0 0.0 0.00 0.00 0.00 96 1016.0
20260902062209 72 146 0.0 0.0 0.00 0.00 0.00 96 1016.0
20260902061710 72 121 0.0 0.0 0.00 0.00 0.00 96 1016.0
20260902061210 72 109 0.0 0.0 0.00 0.00 0.00 96 1016.0
20260902060709 72 100 0.0 0.0 0.00 0.00 0.00 96 1016.0
20260902060210 72 110 0.0 0.0 0.00 0.00 0.00 96 1016.0
20260902055710 72 108 0.0 0.0 0.00 0.00 0.00 96 1016.0
20260902055212 72 123 0.0 0.0 0.00 0.00 0.00 96 1016.0
20260902054709 72 149 0.0 0.0 0.00 0.00 0.00 96 1016.0
20260902054209 72 128 0.0 1.0 0.00 0.00 0.00 95 1016.0
20260902053710 72 111 0.0 0.0 0.00 0.00 0.00 95 1016.0
20260902053210 72 109 0.0 0.0 0.00 0.00 0.00 95 1016.0
20260902052710 72 162 0.0 0.0 0.00 0.00 0.00 95 1016.0
20260902052209 72 119 0.0 0.0 0.00 0.00 0.00 95 1016.0
20260902051709 72 107 0.0 0.0 0.00 0.00 0.00 95 1016.0
20260902051210 72 91 0.0 0.0 0.00 0.00 0.00 95 1016.0
20260902050710 72 104 0.0 0.0 0.00 0.00 0.00 95 1016.0
20260902050211 72 90 0.0 0.0 0.00 0.00 0.00 95 1016.0
20260902045709 72 118 0.0 0.0 0.00 0.00 0.00 95 1016.0
20260902045210 72 112 0.0 0.0 0.00 0.00 0.00 95 1016.0
20260902044710 72 85 0.0 0.0 0.00 0.00 0.00 94 1016.0
20260902044209 72 126 0.0 0.0 0.00 0.00 0.00 94 1016.0
20260902043710 72 106 0.0 0.0 0.00 0.00 0.00 94 1016.0
20260902043211 72 120 0.0 0.0 0.00 0.00 0.00 94 1016.0
20260902042709 73 122 0.0 0.0 0.00 0.00 0.00 94 1016.0
20260902042211 72 114 0.0 0.0 0.00 0.00 0.00 94 1016.0
20260902041709 73 115 0.0 0.0 0.00 0.00 0.00 94 1016.0
20260902041209 73 113 0.0 0.0 0.00 0.00 0.00 94 1016.0
20260902040713 73 131 0.0 0.0 0.00 0.00 0.00 94 1016.0
20260902040210 73 89 0.0 0.0 0.00 0.00 0.00 94 1016.0
20260902035710 73 116 0.0 0.0 0.00 0.00 0.00 94 1016.0
20260902035210 73 135 0.0 0.0 0.00 0.00 0.00 94 1016.0
20260902034710 73 120 0.0 0.0 0.00 0.00 0.00 93 1016.0
20260902034209 73 113 0.0 0.0 0.00 0.00 0.00 93 1016.0
20260902033710 73 89 0.0 0.0 0.00 0.00 0.00 93 1016.0
20260902033209 74 107 0.0 0.0 0.00 0.00 0.00 93 1016.0
20260902032710 74 121 0.0 0.0 0.00 0.00 0.00 93 1016.0
20260902032209 74 112 0.0 0.0 0.00 0.00 0.00 93 1016.0
20260902031709 74 129 0.0 0.0 0.00 0.00 0.00 93 1016.0
20260902031211 74 106 0.0 0.0 0.00 0.00 0.00 93 1016.0
20260902030710 74 109 0.0 0.0 0.00 0.00 0.00 93 1016.0
20260902030209 74 124 0.0 0.0 0.00 0.00 0.00 93 1016.0
20260902025710 74 90 0.0 0.0 0.00 0.00 0.00 93 1016.0
20260902025210 75 89 0.0 0.0 0.00 0.00 0.00 93 1016.0
20260902024709 75 153 0.0 0.0 0.00 0.00 0.00 94 1016.0
20260902024209 74 103 0.0 0.0 0.00 0.00 0.00 93 1016.0
20260902023710 74 6 0.0 1.0 0.00 0.00 0.00 94 1016.0
20260902023210 75 102 0.0 0.0 0.00 0.00 0.00 93 1016.0
20260902022710 75 149 0.0 0.0 0.00 0.00 0.00 93 1016.0
20260902022209 75 108 0.0 0.0 0.00 0.00 0.00 93 1016.0
20260902021710 75 126 0.0 0.0 0.00 0.00 0.00 93 1016.0
20260902021210 75 81 0.0 0.0 0.00 0.00 0.00 93 1016.0
20260902020709 75 146 0.0 0.0 0.00 0.00 0.00 93 1016.0
20260902020209 75 218 0.0 0.0 0.00 0.00 0.00 93 1016.0
20260902015741 75 160 0.0 1.0 0.00 0.00 0.00 93 1016.0
20260902015211 75 83 0.0 2.0 0.00 0.00 0.00 93 1016.0
20260902014709 75 104 0.0 0.0 0.00 0.00 0.00 93 1016.0
20260902014209 75 154 0.0 0.0 0.00 0.00 0.00 93 1016.0
20260902013709 75 137 0.0 2.0 0.00 0.00 0.00 93 1016.0
20260902013211 75 148 0.0 2.0 0.00 0.00 0.00 93 1016.0
20260902012710 75 132 0.0 2.0 0.00 0.00 0.00 93 1016.0
20260902012210 75 157 0.0 0.0 0.00 0.00 0.00 93 1016.0
20260902011710 75 161 0.0 0.0 0.00 0.00 0.00 93 1016.0
20260902011209 75 173 0.0 1.0 0.00 0.00 0.00 92 1016.0
20260902010709 75 221 0.0 0.0 0.00 0.00 0.00 92 1016.0
20260902010210 75 169 0.0 1.0 0.00 0.00 0.00 92 1016.0
20260902005709 75 157 0.0 1.0 0.00 0.00 0.00 92 1016.0
20260902005211 75 147 0.0 1.0 0.00 0.00 0.00 92 1015.0
20260902004710 76 148 0.0 1.0 0.00 0.00 0.00 91 1015.0
20260902004209 76 200 0.0 0.0 0.00 0.00 0.00 91 1015.0
20260902003711 76 155 0.0 0.0 0.00 0.00 0.00 91 1015.0
20260902003209 76 83 0.0 1.0 0.00 0.00 0.00 90 1015.0
20260902002710 76 107 0.0 0.0 0.00 0.00 0.00 90 1015.0
20260902002210 76 110 0.0 0.0 0.00 0.00 0.00 90 1015.0
20260902001710 76 161 0.0 0.0 0.00 0.00 0.00 89 1015.0
20260902001210 77 130 0.0 1.0 0.00 0.00 0.00 88 1015.0
20260902000713 77 197 0.0 0.0 0.00 0.00 0.00 88 1015.0
20260902000211 77 103 0.0 2.0 0.00 0.00 0.00 87 1015.0
20260901235709 77 150 0.0 4.0 0.00 0.00 0.00 87 1015.0
20260901235210 78 174 0.0 3.0 0.00 0.00 0.00 86 1015.0
20260901234710 78 154 0.0 4.0 0.00 0.00 0.00 85 1015.0
20260901234209 78 227 2.0 4.0 0.00 0.00 0.00 84 1015.0
20260901233225 80 239 0.0 0.0 0.00 0.00 0.00 82 1015.0
20260901232709 80 163 0.0 1.0 0.00 0.00 0.00 81 1015.0
20260901232209 81 114 0.0 2.0 0.00 0.00 0.00 80 1015.0
20260901231709 81 150 1.0 2.0 0.00 0.00 0.00 79 1015.0
20260901231210 81 94 2.0 3.0 0.00 0.00 0.00 79 1015.0
20260901230710 82 323 1.0 3.0 0.00 0.00 0.00 78 1015.0
20260901230210 82 248 1.0 1.0 0.00 0.00 0.00 77 1015.0
20260901225712 82 129 1.0 2.0 0.00 0.00 0.00 76 1015.0
20260901225210 83 142 2.0 5.0 0.00 0.00 0.00 75 1015.0
20260901224709 83 124 0.0 1.0 0.00 0.00 0.00 75 1015.0
20260901224209 83 135 0.0 2.0 0.00 0.00 0.00 74 1015.0
20260901223709 84 81 2.0 4.0 0.00 0.00 0.00 74 1015.0
20260901223209 84 167 2.0 4.0 0.00 0.00 0.00 74 1015.0
20260901222710 84 172 1.0 2.0 0.00 0.00 0.00 74 1015.0
20260901222210 84 193 2.0 2.0 0.00 0.00 0.00 74 1015.0
20260901221709 84 162 2.0 4.0 0.00 0.00 0.00 73 1015.0
20260901221210 85 138 4.0 4.0 0.00 0.00 0.00 72 1015.0
20260901220710 85 136 2.0 3.0 0.00 0.00 0.00 71 1015.0
20260901220209 85 330 3.0 3.0 0.00 0.00 0.00 71 1015.0
20260901215709 85 133 2.0 3.0 0.00 0.00 0.00 71 1015.0
20260901215209 85 115 3.0 3.0 0.00 0.00 0.00 72 1015.0
20260901214709 85 187 2.0 2.0 0.00 0.00 0.00 72 1015.0
20260901214209 85 182 3.0 3.0 0.00 0.00 0.00 71 1015.0
20260901213710 85 130 6.0 6.0 0.00 0.00 0.00 72 1015.0
20260901213209 85 188 2.0 5.0 0.00 0.00 0.00 72 1015.0
20260901212709 85 170 5.0 5.0 0.00 0.00 0.00 72 1015.0
20260901212210 85 106 0.0 4.0 0.00 0.00 0.00 72 1015.0
20260901211709 85 331 1.0 4.0 0.00 0.00 0.00 71 1015.0
20260901211209 85 156 2.0 3.0 0.00 0.00 0.00 72 1015.0
20260901210710 85 136 3.0 3.0 0.00 0.00 0.00 71 1015.0
20260901210209 86 359 1.0 1.0 0.00 0.00 0.00 70 1015.0
20260901205710 87 227 2.0 2.0 0.00 0.00 0.00 69 1015.0
20260901205209 87 310 0.0 3.0 0.00 0.00 0.00 70 1015.0
20260901204710 86 155 1.0 4.0 0.00 0.00 0.00 69 1015.0
20260901204210 86 193 2.0 4.0 0.00 0.00 0.00 70 1015.0
20260901203710 86 94 3.0 3.0 0.00 0.00 0.00 69 1015.0
20260901203210 85 197 3.0 7.0 0.00 0.00 0.00 69 1015.0
20260901202709 85 323 3.0 6.0 0.00 0.00 0.00 69 1015.0
20260901202209 85 210 2.0 5.0 0.00 0.00 0.00 69 1015.0
20260901201709 85 178 5.0 5.0 0.00 0.00 0.00 69 1015.0
20260901201209 85 14 2.0 6.0 0.00 0.00 0.00 70 1015.0
20260901200710 85 321 4.0 4.0 0.00 0.00 0.00 71 1016.0
20260901200211 84 202 1.0 4.0 0.00 0.00 0.00 71 1015.0
20260901195709 84 172 3.0 5.0 0.00 0.00 0.00 71 1015.0
20260901195210 83 124 2.0 4.0 0.00 0.00 0.00 72 1015.0
20260901194710 83 155 0.0 5.0 0.00 0.00 0.00 71 1015.0
20260901194210 83 126 5.0 5.0 0.00 0.00 0.00 71 1015.0
20260901193709 84 165 6.0 6.0 0.00 0.00 0.00 71 1015.0
20260901193210 84 190 0.0 6.0 0.00 0.00 0.00 71 1015.0
20260901192709 84 161 3.0 4.0 0.00 0.00 0.00 72 1015.0
20260901192209 84 179 2.0 4.0 0.00 0.00 0.00 71 1015.0
20260901191710 85 223 3.0 4.0 0.00 0.00 0.00 69 1015.0
20260901191210 86 243 2.0 2.0 0.00 0.00 0.00 67 1015.0
20260901190710 87 143 3.0 5.0 0.00 0.00 0.00 65 1015.0
20260901190210 88 155 2.0 2.0 0.00 0.00 0.00 64 1015.0
20260901185710 89 103 3.0 4.0 0.00 0.00 0.00 62 1015.0
20260901185210 90 200 4.0 4.0 0.00 0.00 0.00 63 1015.0
20260901184709 89 279 1.0 4.0 0.00 0.00 0.00 64 1015.0
20260901184209 89 141 4.0 4.0 0.00 0.00 0.00 63 1015.0
20260901183709 88 213 2.0 6.0 0.00 0.00 0.00 64 1015.0
20260901183209 88 218 6.0 6.0 0.00 0.00 0.00 63 1015.0
20260901182710 88 203 3.0 5.0 0.00 0.00 0.00 64 1016.0
20260901182209 88 175 2.0 5.0 0.00 0.00 0.00 65 1016.0
20260901181714 88 216 2.0 3.0 0.00 0.00 0.00 66 1015.0
20260901181209 87 126 3.0 4.0 0.00 0.00 0.00 66 1015.0
20260901180710 87 117 2.0 6.0 0.00 0.00 0.00 65 1015.0
20260901180209 87 185 2.0 6.0 0.00 0.00 0.00 67 1015.0
20260901175710 87 237 6.0 7.0 0.00 0.00 0.00 66 1015.0
20260901175210 87 201 3.0 7.0 0.00 0.00 0.00 68 1015.0
20260901174709 87 236 2.0 6.0 0.00 0.00 0.00 67 1015.0
20260901174211 87 176 3.0 4.0 0.00 0.00 0.00 69 1015.0
20260901173710 87 181 1.0 4.0 0.00 0.00 0.00 69 1015.0
20260901173209 87 160 2.0 6.0 0.00 0.00 0.00 70 1015.0
20260901172710 86 184 1.0 6.0 0.00 0.00 0.00 72 1015.0
20260901172210 85 90 2.0 3.0 0.00 0.00 0.00 72 1015.0
20260901171709 85 155 6.0 6.0 0.00 0.00 0.00 72 1015.0
20260901171209 85 73 1.0 3.0 0.00 0.00 0.00 72 1015.0
20260901170711 84 46 0.0 2.0 0.00 0.00 0.00 74 1015.0
20260901170210 84 293 2.0 3.0 0.00 0.00 0.00 73 1015.0
20260901165710 84 190 4.0 4.0 0.00 0.00 0.00 74 1015.0
20260901165209 84 174 3.0 4.0 0.00 0.00 0.00 73 1015.0
20260901164711 84 167 2.0 4.0 0.00 0.00 0.00 75 1015.0
20260901164211 83 34 2.0 8.0 0.00 0.00 0.00 76 1015.0
20260901163709 83 180 2.0 4.0 0.00 0.00 0.00 74 1015.0
20260901163209 83 130 2.0 6.0 0.00 0.00 0.00 74 1015.0
20260901162711 82 110 1.0 2.0 0.00 0.00 0.00 75 1015.0
20260901162209 82 335 2.0 2.0 0.00 0.00 0.00 75 1015.0
20260901161712 82 237 3.0 3.0 0.00 0.00 0.00 77 1015.0
20260901161210 82 142 0.0 5.0 0.00 0.00 0.00 76 1015.0
20260901160709 81 192 0.0 3.0 0.00 0.00 0.00 77 1015.0
20260901160213 81 193 1.0 2.0 0.00 0.00 0.00 77 1015.0
20260901155710 81 264 2.0 3.0 0.00 0.00 0.00 77 1015.0
20260901155210 82 132 1.0 3.0 0.00 0.00 0.00 76 1015.0
20260901154710 82 153 0.0 5.0 0.00 0.00 0.00 76 1015.0
20260901154209 82 352 1.0 4.0 0.00 0.00 0.00 76 1015.0
20260901153709 83 19 1.0 4.0 0.00 0.00 0.00 74 1015.0
20260901153211 83 293 1.0 1.0 0.00 0.00 0.00 74 1015.0
20260901152709 83 76 2.0 3.0 0.00 0.00 0.00 74 1015.0
20260901152209 83 301 1.0 3.0 0.00 0.00 0.00 76 1015.0
20260901151710 83 85 1.0 2.0 0.00 0.00 0.00 76 1015.0
20260901151210 83 147 0.0 3.0 0.00 0.00 0.00 74 1015.0
20260901150710 83 284 1.0 3.0 0.00 0.00 0.00 73 1015.0
20260901145709 82 6 0.0 2.0 0.00 0.00 0.00 76 1015.0
20260901145211 82 147 1.0 3.0 0.00 0.00 0.00 75 1015.0
20260901144709 81 85 0.0 0.0 0.00 0.00 0.00 76 1015.0
20260901144209 81 37 0.0 0.0 0.00 0.00 0.00 76 1015.0
20260901143709 81 33 0.0 1.0 0.00 0.00 0.00 77 1015.0
20260901143211 80 163 0.0 0.0 0.00 0.00 0.00 78 1015.0
20260901142712 80 164 3.0 5.0 0.00 0.00 0.00 79 1015.0
20260901142210 79 160 1.0 4.0 0.00 0.00 0.00 81 1015.0
20260901141709 79 218 2.0 2.0 0.00 0.00 0.00 81 1015.0
20260901141209 79 141 0.0 2.0 0.00 0.00 0.00 82 1015.0
20260901140709 79 166 0.0 3.0 0.00 0.00 0.00 82 1015.0
20260901140210 78 260 4.0 4.0 0.00 0.00 0.00 82 1015.0
20260901135710 78 39 0.0 0.0 0.00 0.00 0.00 83 1015.0
20260901135209 78 120 0.0 1.0 0.00 0.00 0.00 84 1015.0
20260901134711 78 65 0.0 3.0 0.00 0.00 0.00 84 1015.0
20260901134210 78 54 1.0 1.0 0.00 0.00 0.00 84 1015.0
20260901133715 77 48 0.0 2.0 0.00 0.00 0.00 84 1015.0
20260901133219 77 343 2.0 3.0 0.00 0.00 0.00 85 1015.0
20260901132709 77 289 0.0 1.0 0.00 0.00 0.00 85 1015.0
20260901132212 77 20 0.0 2.0 0.00 0.00 0.00 85 1015.0
20260901131709 77 274 0.0 3.0 0.00 0.00 0.00 85 1015.0
20260901131209 77 88 0.0 2.0 0.00 0.00 0.00 86 1015.0
20260901130713 77 58 2.0 4.0 0.00 0.00 0.00 85 1015.0
20260901130210 77 355 1.0 5.0 0.00 0.00 0.00 86 1015.0
20260901125710 76 173 1.0 3.0 0.00 0.00 0.00 87 1015.0
20260901125211 76 104 1.0 1.0 0.00 0.00 0.00 88 1015.0
20260901124709 76 96 0.0 1.0 0.00 0.00 0.00 88 1015.0
20260901124209 76 343 2.0 2.0 0.00 0.00 0.00 88 1015.0
20260901123709 75 271 2.0 2.0 0.00 0.00 0.00 89 1015.0
20260901123209 75 85 0.0 5.0 0.00 0.00 0.00 89 1015.0
20260901122710 75 353 0.0 3.0 0.00 0.00 0.00 89 1015.0
20260901122210 75 313 0.0 0.0 0.00 0.00 0.00 90 1015.0
20260901121709 75 159 0.0 3.0 0.00 0.00 0.00 90 1015.0
20260901121210 75 42 0.0 1.0 0.00 0.00 0.00 90 1015.0
20260901120711 75 32 0.0 3.0 0.00 0.00 0.00 90 1015.0
20260901120213 75 78 1.0 3.0 0.00 0.00 0.00 90 1015.0
20260901115709 75 199 0.0 0.0 0.00 0.00 0.00 90 1015.0
20260901115209 75 43 0.0 0.0 0.00 0.00 0.00 90 1015.0
20260901114711 75 222 0.0 0.0 0.00 0.00 0.00 90 1015.0
20260901114211 75 350 0.0 1.0 0.00 0.00 0.00 90 1015.0
20260901113710 75 296 0.0 2.0 0.00 0.00 0.00 90 1015.0
20260901113209 74 155 0.0 2.0 0.00 0.00 0.00 89 1015.0
20260901112709 75 279 0.0 1.0 0.00 0.00 0.00 89 1015.0
20260901112209 74 85 0.0 0.0 0.00 0.00 0.00 89 1015.0
20260901111709 74 112 0.0 3.0 0.00 0.00 0.00 89 1014.0
20260901111210 74 67 0.0 2.0 0.00 0.00 0.00 89 1015.0
20260901110709 74 271 1.0 3.0 0.00 0.00 0.00 88 1014.0
20260901110209 74 125 0.0 2.0 0.00 0.00 0.00 88 1014.0
20260901105711 74 123 0.0 0.0 0.00 0.00 0.00 88 1014.0
20260901105209 74 100 0.0 0.0 0.00 0.00 0.00 87 1014.0
20260901104711 74 164 2.0 2.0 0.00 0.00 0.00 87 1014.0
20260901104210 74 120 0.0 3.0 0.00 0.00 0.00 87 1014.0
20260901103709 74 60 0.0 0.0 0.00 0.00 0.00 87 1014.0
20260901103209 74 171 1.0 3.0 0.00 0.00 0.00 87 1014.0
20260901102710 74 144 3.0 3.0 0.00 0.00 0.00 87 1014.0
20260901102210 74 146 0.0 3.0 0.00 0.00 0.00 88 1014.0